• In Hungary
  • List of Countries
  • For 7 days
  • Water Temperature
  • Satellite Maps
  • Weather Map
  • News
  • Weather Widgets
  • user-avatar
    Login

    Hourly Weather Ballycastle

    Today, 22 November, Wednesday

    Time Temperature Precipitation Wind Pressure Humidity
    00:00 +9°C° 0 mm 6 mps 741 mmHg 93%
    01:00 +9°C° 0.1 mm 5 mps 741 mmHg 92%
    02:00 +8°C° 0.1 mm 4 mps 740 mmHg 92%
    03:00 +9°C° 0.1 mm 3 mps 740 mmHg 92%
    04:00 +8°C° 0.5 mm 3 mps 739 mmHg 93%
    05:00 +8°C° 0.5 mm 3 mps 739 mmHg 93%
    06:00 +6°C° 0 mm 4 mps 738 mmHg 88%
    07:00 +5°C° 1.3 mm 4 mps 738 mmHg 90%
    08:00 +5°C° 1.3 mm 3 mps 737 mmHg 91%
    09:00 +6°C° 1.3 mm 2 mps 736 mmHg 92%
    10:00 +5°C° 0.6 mm 3 mps 736 mmHg 92%
    11:00 +5°C° 0.6 mm 3 mps 735 mmHg 91%
    12:00 +5°C° 0 mm 3 mps 734 mmHg 90%
    13:00 +5°C° 0.1 mm 3 mps 734 mmHg 88%
    14:00 +5°C° 0.1 mm 3 mps 734 mmHg 87%
    15:00 +5°C° 0.1 mm 3 mps 734 mmHg 86%
    16:00 +5°C° 0 mm 3 mps 733 mmHg 87%
    17:00 +6°C° 0 mm 2 mps 733 mmHg 87%
    18:00 +5°C° 0 mm 2 mps 733 mmHg 88%
    19:00 +5°C° 0 mm 2 mps 732 mmHg 88%
    20:00 +5°C° 0 mm 2 mps 732 mmHg 89%
    21:00 +5°C° 0 mm 2 mps 732 mmHg 89%
    22:00 +3°C° 0.1 mm 3 mps 731 mmHg 88%
    23:00 +3°C° 0.1 mm 3 mps 731 mmHg 87%

    Tomorrow, 23 November, Thursday

    Time Temperature Precipitation Wind Pressure Humidity
    00:00 +1°C° 0.1 mm 4 mps 731 mmHg 87%
    01:00 +1°C° 0.1 mm 4 mps 731 mmHg 87%
    02:00 +1°C° 0.1 mm 5 mps 731 mmHg 87%
    03:00 +1°C° 0.1 mm 6 mps 730 mmHg 88%
    04:00 +1°C° 0.2 mm 6 mps 731 mmHg 88%
    05:00 +1°C° 0.2 mm 6 mps 731 mmHg 88%
    06:00 +1°C° 0.2 mm 6 mps 731 mmHg 88%
    07:00 +2°C° 0.2 mm 6 mps 732 mmHg 87%
    08:00 +2°C° 0.2 mm 7 mps 733 mmHg 85%
    09:00 +2°C° 0.2 mm 8 mps 734 mmHg 84%
    10:00 +2°C° 0.1 mm 8 mps 736 mmHg 82%
    11:00 +3°C° 0.1 mm 9 mps 738 mmHg 79%
    12:00 +3°C° 0.1 mm 9 mps 739 mmHg 76%
    13:00 +2°C° 0.4 mm 9 mps 741 mmHg 77%
    14:00 +2°C° 0.4 mm 8 mps 742 mmHg 77%
    15:00 +3°C° 0.4 mm 7 mps 743 mmHg 77%
    16:00 +2°C° 0.3 mm 7 mps 744 mmHg 78%
    17:00 +2°C° 0.3 mm 7 mps 745 mmHg 79%
    18:00 0°C° 0.3 mm 7 mps 746 mmHg 81%
    19:00 0°C° 0.1 mm 7 mps 747 mmHg 81%
    20:00 -1°C° 0.1 mm 6 mps 748 mmHg 81%
    21:00 -1°C° 0.1 mm 6 mps 748 mmHg 81%
    22:00 -1°C° 0.1 mm 6 mps 748 mmHg 82%
    23:00 0°C° 0.1 mm 5 mps 749 mmHg 83%

    Day after tomorrow, 24 November, Friday

    Time Temperature Precipitation Wind Pressure Humidity
    00:00 -1°C° 0.1 mm 5 mps 749 mmHg 84%
    01:00 -1°C° 0.2 mm 5 mps 749 mmHg 84%
    02:00 -1°C° 0.2 mm 5 mps 750 mmHg 84%
    03:00 -1°C° 0.2 mm 5 mps 750 mmHg 84%
    04:00 -2°C° 0.3 mm 6 mps 750 mmHg 83%
    05:00 -2°C° 0.3 mm 6 mps 751 mmHg 83%
    06:00 -2°C° 0.3 mm 6 mps 751 mmHg 83%
    07:00 -2°C° 0.2 mm 6 mps 751 mmHg 82%
    08:00 -2°C° 0.2 mm 7 mps 751 mmHg 82%
    09:00 -2°C° 0.2 mm 7 mps 752 mmHg 81%
    10:00 -1°C° 0.2 mm 7 mps 752 mmHg 78%
    11:00 0°C° 0.2 mm 8 mps 752 mmHg 74%
    12:00 0°C° 0.2 mm 8 mps 752 mmHg 71%
    13:00 0°C° 0.2 mm 8 mps 752 mmHg 70%
    14:00 0°C° 0.2 mm 8 mps 752 mmHg 70%
    15:00 0°C° 0.2 mm 8 mps 752 mmHg 70%
    16:00 0°C° 0.3 mm 8 mps 752 mmHg 73%
    17:00 -1°C° 0.3 mm 8 mps 753 mmHg 75%
    18:00 -1°C° 0.3 mm 9 mps 753 mmHg 77%
    19:00 -1°C° 0.4 mm 9 mps 753 mmHg 77%
    20:00 -1°C° 0.4 mm 9 mps 753 mmHg 78%
    21:00 -2°C° 0.4 mm 10 mps 753 mmHg 78%
    22:00 0°C° 0.5 mm 10 mps 753 mmHg 78%
    23:00 0°C° 0.5 mm 10 mps 753 mmHg 78%

    25 November, Saturday

    Time Temperature Precipitation Wind Pressure Humidity
    00:00 0°C° 0.5 mm 10 mps 753 mmHg 78%
    01:00 0°C° 0.4 mm 10 mps 754 mmHg 78%
    02:00 0°C° 0.4 mm 10 mps 754 mmHg 78%
    03:00 -2°C° 0.4 mm 10 mps 754 mmHg 78%
    04:00 0°C° 0.4 mm 10 mps 754 mmHg 78%
    05:00 0°C° 0.4 mm 10 mps 754 mmHg 78%
    06:00 0°C° 0.4 mm 10 mps 755 mmHg 78%
    07:00 0°C° 0.3 mm 10 mps 755 mmHg 77%
    08:00 0°C° 0.3 mm 10 mps 755 mmHg 77%
    09:00 -2°C° 0.3 mm 10 mps 756 mmHg 77%
    10:00 0°C° 0.2 mm 10 mps 756 mmHg 76%
    11:00 0°C° 0.2 mm 10 mps 756 mmHg 75%
    12:00 +1°C° 0.2 mm 11 mps 756 mmHg 75%
    13:00 +1°C° 0.2 mm 11 mps 756 mmHg 75%
    14:00 +1°C° 0.2 mm 11 mps 756 mmHg 76%
    15:00 -1°C° 0.2 mm 11 mps 756 mmHg 76%
    16:00 +1°C° 0.3 mm 11 mps 756 mmHg 78%
    17:00 +1°C° 0.3 mm 11 mps 756 mmHg 79%
    18:00 +1°C° 0.3 mm 11 mps 757 mmHg 81%
    19:00 +1°C° 0.4 mm 11 mps 757 mmHg 81%
    20:00 +2°C° 0.4 mm 11 mps 758 mmHg 81%
    21:00 +2°C° 0.4 mm 11 mps 758 mmHg 82%
    22:00 +2°C° 0.2 mm 11 mps 759 mmHg 80%
    23:00 +2°C° 0.2 mm 11 mps 759 mmHg 79%

    26 November, Sunday

    Time Temperature Precipitation Wind Pressure Humidity
    00:00 +2°C° 0.2 mm 11 mps 760 mmHg 78%
    01:00 +2°C° 0.1 mm 11 mps 760 mmHg 78%
    02:00 +2°C° 0.1 mm 10 mps 761 mmHg 78%
    03:00 +2°C° 0.1 mm 10 mps 761 mmHg 78%
    04:00 +2°C° 0.1 mm 10 mps 761 mmHg 79%
    05:00 +1°C° 0.1 mm 9 mps 762 mmHg 79%
    06:00 +1°C° 0.1 mm 9 mps 762 mmHg 80%
    07:00 +1°C° 0.2 mm 9 mps 763 mmHg 80%
    08:00 +2°C° 0.2 mm 9 mps 763 mmHg 80%
    09:00 +2°C° 0.2 mm 9 mps 764 mmHg 79%
    10:00 +2°C° 0.1 mm 9 mps 764 mmHg 78%
    11:00 +2°C° 0.1 mm 9 mps 764 mmHg 77%
    12:00 +3°C° 0.1 mm 9 mps 765 mmHg 75%
    13:00 +3°C° 0.1 mm 9 mps 765 mmHg 76%
    14:00 +3°C° 0.1 mm 9 mps 765 mmHg 77%
    15:00 +4°C° 0.1 mm 8 mps 765 mmHg 78%
    16:00 +2°C° 0 mm 8 mps 765 mmHg 81%
    17:00 +3°C° 0 mm 7 mps 765 mmHg 84%
    18:00 +3°C° 0 mm 6 mps 765 mmHg 87%
    19:00 +3°C° 0.3 mm 7 mps 764 mmHg 88%
    20:00 +4°C° 0.3 mm 7 mps 764 mmHg 89%
    21:00 +4°C° 0.3 mm 8 mps 763 mmHg 90%
    22:00 +5°C° 1.4 mm 8 mps 762 mmHg 91%
    23:00 +5°C° 1.4 mm 9 mps 762 mmHg 92%

    27 November, Monday

    Time Temperature Precipitation Wind Pressure Humidity
    00:00 +5°C° 1.4 mm 9 mps 761 mmHg 93%
    01:00 +5°C° 0.2 mm 10 mps 761 mmHg 90%
    02:00 +5°C° 0.2 mm 10 mps 761 mmHg 87%
    03:00 +4°C° 0.2 mm 11 mps 761 mmHg 84%
    04:00 +4°C° 0.1 mm 11 mps 761 mmHg 83%
    05:00 +4°C° 0.1 mm 11 mps 761 mmHg 82%
    06:00 +4°C° 0.1 mm 11 mps 761 mmHg 81%
    07:00 +5°C° 0.1 mm 10 mps 761 mmHg 80%
    08:00 +5°C° 0.1 mm 10 mps 762 mmHg 80%
    09:00 +5°C° 0.1 mm 10 mps 762 mmHg 80%
    10:00 +5°C° 0.1 mm 10 mps 762 mmHg 80%
    11:00 +5°C° 0.1 mm 10 mps 762 mmHg 79%
    12:00 +5°C° 0.1 mm 9 mps 763 mmHg 79%
    13:00 +5°C° 0.1 mm 9 mps 762 mmHg 80%
    14:00 +5°C° 0.1 mm 9 mps 762 mmHg 81%
    15:00 +5°C° 0.1 mm 9 mps 762 mmHg 82%
    16:00 +5°C° 0.2 mm 9 mps 762 mmHg 84%
    17:00 +5°C° 0.2 mm 9 mps 762 mmHg 85%
    18:00 +5°C° 0.2 mm 9 mps 762 mmHg 87%
    19:00 +5°C° 0.2 mm 8 mps 762 mmHg 87%
    20:00 +5°C° 0.2 mm 8 mps 762 mmHg 87%
    21:00 +5°C° 0.2 mm 8 mps 762 mmHg 87%
    22:00 +5°C° 0.1 mm 8 mps 762 mmHg 87%
    23:00 +4°C° 0.1 mm 8 mps 761 mmHg 87%
    Show more